Cut Bank, MT

4:30 PM MDT on April 23, 2018 (GMT -0600)
Cut Bank Municipal

Weather History for KCTB - March, 2014

Change the Weather History Date:

Wednesday, March 26, 2014

  Actual Average Record
Temperature  
Mean Temperature 24 °F 35 °F  
Max Temperature 29 °F 46 °F 66 °F (1960)
Min Temperature 19 °F 24 °F -30 °F (1904)
Degree Days  
Heating Degree Days 41 30  
Month to date heating degree days 1040 895  
Since 1 July heating degree days 7246 6955  
Cooling Degree Days 0 0  
Month to date cooling degree days 0 0  
Year to date cooling degree days 0 0  
Moisture  
Dew Point 21 °F    
Average Humidity 86    
Maximum Humidity 96    
Minimum Humidity 75    
Precipitation  
Precipitation 0.00 in 0.01 in 0.30 in (1958)
Month to date precipitation 0.35 0.40  
Year to date precipitation 1.68 0.81  
Snow  
Snow 0.00 in - - ()
Snow Depth T in    
Sea Level Pressure  
Sea Level Pressure 29.62 in    
Wind  
Wind Speed 10 mph (North)    
Max Wind Speed 16 mph    
Max Gust Speed 20 mph    
Visibility 6 miles    
Events Fog    
T = Trace of Precipitation, MM = Missing Value Source: NWS Daily Summary

Daily Weather History Graph

Daily Weather History Graph

Search for Another Location

Airport or City:

Astronomy

Mar. 26, 2014 Rise Set
Actual Time 7:19 AM MDT 7:51 PM MDT
Civil Twilight 6:48 AM MDT 8:23 PM MDT
Nautical Twilight 6:10 AM MDT 9:00 PM MDT
Astronomical Twilight 5:31 AM MDT 9:39 PM MDT
Moon 4:51 AM MDT (3/26) 3:15 PM MDT (3/26)
Length of Visible Light 13h 34m
Length of Day
12h 31m
Waning Crescent, 21% of the Moon is Illuminated
Mar 26
Waning Crescent
Mar 30
New
Apr 7
First Quarter
Apr 15
Full
Apr 22
Last Quarter

Hourly Weather History & Observations

Time (MDT) Temp. Windchill Dew Point Humidity Pressure Visibility Wind Dir Wind Speed Gust Speed Precip Events Conditions
12:56 AM 21.0 °F 16.2 °F 19.0 °F 92% 29.65 in 10.0 mi West 3.5 mph - N/A   Clear
1:56 AM 19.9 °F 14.9 °F 18.0 °F 92% 29.62 in 10.0 mi South 3.5 mph - N/A   Clear
2:56 AM 21.0 °F 13.4 °F 18.0 °F 88% 29.58 in 10.0 mi WSW 5.8 mph - N/A   Clear
3:56 AM 19.9 °F 12.1 °F 17.1 °F 89% 29.58 in 10.0 mi NNE 5.8 mph - N/A   Clear
4:35 AM 19.9 °F 8.6 °F 18.0 °F 92% 29.49 in 4.0 mi North 10.4 mph - N/A   Scattered Clouds
4:40 AM 19.9 °F 7.9 °F 19.0 °F 96% 29.48 in 1.8 mi North 11.5 mph - N/A   Mostly Cloudy
4:56 AM 21.0 °F 8.6 °F 19.9 °F 96% 29.59 in 3.0 mi North 12.7 mph - N/A   Mostly Cloudy
5:02 AM 21.0 °F 8.6 °F 19.0 °F 92% 29.49 in 1.5 mi North 12.7 mph - N/A   Mostly Cloudy
5:11 AM 21.9 °F 9.2 °F 19.9 °F 92% 29.50 in 0.5 mi North 13.8 mph - N/A Fog Light Freezing Fog
5:25 AM 21.9 °F 10.4 °F 21.0 °F 96% 29.50 in 0.8 mi NNE 11.5 mph - N/A   Mist
5:34 AM 23.0 °F 10.6 °F 21.0 °F 92% 29.51 in 1.0 mi North 13.8 mph - N/A   Mist
5:56 AM 23.0 °F 10.6 °F 21.9 °F 96% 29.62 in 1.8 mi North 13.8 mph - N/A   Overcast
6:13 AM 23.0 °F 10.1 °F 21.9 °F 96% 29.51 in 2.5 mi North 15.0 mph - N/A   Overcast
6:56 AM 23.0 °F 10.1 °F 21.0 °F 92% 29.62 in 2.5 mi North 15.0 mph - N/A   Overcast
7:18 AM 23.0 °F 9.6 °F 21.0 °F 92% 29.52 in 4.0 mi North 16.1 mph - N/A   Overcast
7:56 AM 23.0 °F 10.6 °F 21.0 °F 92% 29.64 in 4.0 mi North 13.8 mph - N/A   Overcast
8:56 AM 23.0 °F 11.7 °F 21.0 °F 92% 29.66 in 5.0 mi North 11.5 mph - N/A   Overcast
9:04 AM 23.0 °F 12.4 °F 21.0 °F 92% 29.54 in 6.0 mi North 10.4 mph - N/A   Overcast
9:56 AM 24.1 °F 12.0 °F 21.9 °F 91% 29.66 in 9.0 mi North 13.8 mph - N/A   Overcast
10:56 AM 26.1 °F 14.5 °F 23.0 °F 88% 29.66 in 8.0 mi North 13.8 mph - N/A   Overcast
11:56 AM 27.0 °F 17.3 °F 23.0 °F 85% 29.66 in 10.0 mi North 10.4 mph - N/A   Overcast
12:54 PM 28.4 °F 19.7 °F 23.0 °F 80% 29.56 in 10.0 mi North 9.2 mph - N/A   Overcast
12:56 PM 28.0 °F 19.3 °F 21.9 °F 78% 29.67 in 10.0 mi North 9.2 mph - N/A   Overcast
1:56 PM 28.0 °F 18.6 °F 23.0 °F 81% 29.68 in 10.0 mi North 10.4 mph - N/A   Overcast
2:56 PM 28.0 °F 18.6 °F 21.9 °F 78% 29.67 in 10.0 mi NNE 10.4 mph - N/A   Overcast
3:56 PM 28.0 °F 17.5 °F 21.9 °F 78% 29.67 in 10.0 mi NNE 12.7 mph - N/A   Overcast
4:56 PM 27.0 °F 17.3 °F 21.9 °F 81% 29.68 in 10.0 mi NNE 10.4 mph - N/A   Overcast
5:56 PM 27.0 °F 17.3 °F 21.9 °F 81% 29.69 in 10.0 mi NNE 10.4 mph - N/A   Overcast
6:56 PM 26.1 °F 16.2 °F 21.0 °F 81% 29.70 in 10.0 mi NNE 10.4 mph - N/A   Overcast
7:23 PM 25.0 °F 14.8 °F 21.0 °F 85% 29.60 in 10.0 mi NNE 10.4 mph - N/A   Overcast
7:56 PM 25.0 °F 15.5 °F 21.0 °F 85% 29.72 in 10.0 mi NE 9.2 mph - N/A   Overcast
8:56 PM 24.1 °F 13.7 °F 21.9 °F 91% 29.74 in 5.0 mi NNE 10.4 mph - N/A   Overcast
9:15 PM 23.0 °F 13.9 °F 21.9 °F 96% 29.63 in 4.0 mi NNE 8.1 mph - N/A   Overcast
9:56 PM 23.0 °F 13.1 °F 21.0 °F 92% 29.75 in 5.0 mi North 9.2 mph - N/A   Overcast
10:15 PM 23.0 °F 13.9 °F 21.0 °F 92% 29.64 in 4.0 mi NNE 8.1 mph - N/A   Overcast
10:41 PM 23.0 °F 12.4 °F 21.0 °F 92% 29.64 in 4.0 mi North 10.4 mph - N/A   Overcast
10:56 PM 23.0 °F 13.9 °F 21.0 °F 92% 29.75 in 5.0 mi North 8.1 mph - N/A   Overcast
11:56 PM 23.0 °F 13.9 °F 19.9 °F 88% 29.76 in 6.0 mi North 8.1 mph - N/A   Overcast